[[{"header":{"parameterUnit":"m.s-1","parameterCategory":1,"la1":30.2991,"la2":30.254,"lo1":-89.0895,"lo2":-89.0444,"dy":0.0017,"dx":0.0017,"nx":28,"ny":28,"refTime":"2024-05-03T09:00:00:Z","depth":0,"parameterNumber":2,"parameterNumberName":"U-component_of_WINDS"},"data":[0,0,0,0,0,0,0,0,0,0,0,0,0,0,0,0,0,0,0,0,0,0,0,0,0,0,0,0,0,0,0,0,0,0,0,0,0,0,0,0,0,0,0,0,0,0,0,0,0,0,0,0,0,0,0,0,0,0,-1.082,-1.082,0,-1.0816,-1.0816,-1.0815,-1.0799,-1.0799,-1.0799,-1.0798,-1.0795,-1.0795,-1.0795,0,0,0,0,0,0,0,0,0,0,0,0,0,-1.0816,-1.0816,-1.082,-1.082,-1.082,-1.0816,-1.0816,-1.0815,-1.08,-1.0799,-1.0799,-1.0798,-1.0795,-1.0795,-1.0795,0,0,0,0,0,0,0,0,0,0,0,0,0,-1.0815,-1.0816,-1.082,-1.0812,-1.0811,-1.0816,-1.0816,-1.0815,-1.08,-1.0799,-1.0799,-1.0798,-1.0795,-1.0795,-1.0795,-1.0808,0,0,-1.0796,-1.0797,0,0,0,0,0,0,0,0,-1.0815,-1.0815,-1.0813,-1.0812,-1.0811,-1.0808,-1.0813,-1.0813,-1.08,-1.0804,-1.0798,-1.0798,-1.08,-1.0799,-1.08,-1.0808,-1.0808,-1.0796,-1.0797,-1.0797,-1.0797,0,0,0,0,0,0,0,-1.0815,-1.0816,-1.0818,-1.0813,-1.0812,-1.0808,-1.0807,-1.0813,-1.0805,-1.0803,-1.0802,-1.0802,-1.0799,-1.0799,-1.08,-1.0808,-1.0796,-1.0797,-1.0797,-1.0797,-1.0827,-1.0827,0,0,0,0,0,0,-1.0817,-1.0816,-1.0819,-1.0818,-1.0812,-1.0809,-1.0808,-1.0809,-1.0805,-1.0804,-1.0802,-1.0801,-1.0799,-1.0799,-1.0799,-1.0814,-1.0797,-1.0797,-1.0797,-1.0826,-1.0827,-1.0827,0,0,0,0,0,0,-1.0817,-1.0817,-1.0819,-1.0817,-1.0817,-1.0809,-1.0811,-1.0809,-1.081,-1.0804,-1.0803,-1.0804,-1.0799,-1.0799,-1.0806,-1.0814,-1.0797,-1.0798,-1.0825,-1.0826,-1.0827,-1.0844,0,0,0,0,0,0,-1.0817,-1.0817,-1.0822,-1.0817,-1.0817,-1.0825,-1.0812,-1.081,-1.0811,-1.0809,-1.0805,-1.0804,-1.0798,-1.0806,-1.0806,-1.0814,-1.0798,-1.0825,-1.0826,-1.0827,-1.0842,-1.0845,-1.0847,0,0,0,0,0,-1.0816,-1.0827,-1.0822,-1.0823,-1.0823,-1.0826,-1.0826,-1.0818,-1.0811,-1.0816,-1.0812,-1.0804,-1.0813,-1.0807,-1.0807,-1.0815,-1.0824,-1.0825,-1.0827,-1.0841,-1.0844,-1.0847,0,0,0,0,0,0,-1.0834,-1.0826,-1.0821,-1.083,-1.0829,-1.0823,-1.0829,-1.0822,-1.0823,-1.0821,-1.0813,-1.0812,-1.082,-1.0818,-1.0812,-1.0827,-1.0817,-1.0819,-1.0828,-1.0831,-1.0833,-1.0833,-1.0798,0,0,0,0,0,-1.0838,-1.0841,-1.0835,-1.0844,-1.0843,-1.0836,-1.0838,-1.0832,-1.083,-1.083,-1.0826,-1.0825,-1.0827,-1.0829,-1.0831,-1.0842,-1.0841,-1.0848,-1.085,-1.0852,-1.0854,-1.0859,-1.0862,-1.0832,-1.0832,-1.0831,0,0,-1.0849,-1.0845,-1.0847,-1.0847,-1.0845,-1.0849,-1.0836,-1.084,-1.0843,-1.083,-1.0837,-1.0834,-1.0832,-1.0841,-1.0845,-1.084,-1.0862,-1.0854,-1.0855,-1.0856,-1.086,-1.0863,-1.0866,-1.0832,-1.0832,-1.0832,0,0,-1.0869,-1.0866,-1.0873,-1.0871,-1.0869,-1.0864,-1.0866,-1.0861,-1.0859,-1.0865,-1.0855,-1.0858,-1.0863,-1.0862,-1.0862,-1.0881,-1.0874,-1.0882,-1.0894,-1.0899,-1.0902,-1.0904,-1.091,-1.0913,-1.0883,-1.0883,-1.0883,0,-1.0882,-1.0886,-1.0878,-1.0882,-1.0882,-1.0871,-1.0878,-1.0877,-1.0875,-1.0875,-1.087,-1.0874,-1.0872,-1.0881,-1.0885,-1.0886,-1.0887,-1.0882,-1.0902,-1.0904,-1.0906,-1.0912,-1.0914,-1.0884,-1.0884,-1.0884,-1.0884,0,-1.0902,-1.0905,-1.0911,-1.0909,-1.091,-1.0916,-1.0908,-1.091,-1.0904,-1.09,-1.0906,-1.0904,-1.0904,-1.0906,-1.0901,-1.0914,-1.091,-1.0904,-1.0893,-1.091,-1.0915,-1.0917,-1.0886,-1.0885,-1.0885,-1.0885,0,0,-1.0933,-1.0926,-1.0928,-1.0926,-1.0922,-1.0925,-1.093,-1.093,-1.0932,-1.0931,-1.0935,-1.0939,-1.0932,-1.0932,-1.0927,-1.0932,-1.0946,-1.0924,-1.0924,-1.0928,-1.096,-1.0965,-1.0967,-1.0942,-1.0942,-1.0942,-1.096,0,-1.0952,-1.0959,-1.0952,-1.0961,-1.0964,-1.0953,-1.0958,-1.0956,-1.0952,-1.0954,-1.095,-1.0952,-1.0944,-1.0944,-1.0948,-1.0944,-1.0952,-1.0942,-1.0945,-1.0945,-1.0945,-1.097,-1.0976,-1.0992,-1.0962,-1.0962,-1.0962,0,-1.0974,-1.0974,-1.0983,-1.0978,-1.0979,-1.0983,-1.0982,-1.0985,-1.0982,-1.0979,-1.0979,-1.0972,-1.0977,-1.0967,-1.0973,-1.0966,-1.0967,-1.0965,-1.0966,-1.0966,-1.0955,-1.097,-1.0997,-1.0999,-1.0966,-1.0965,-1.0965,0,-1.0995,-1.0997,-1.1003,-1.1002,-1.0996,-1.0999,-1.0997,-1.0994,-1.0995,-1.0994,-1.0994,-1.0995,-1.0995,-1.0996,-1.0989,-1.0983,-1.0996,-1.0986,-1.0994,-1.0994,-1.0997,-1.0997,-1.1024,-1.0998,-1.0998,-1.0998,-1.0998,0,-1.1017,-1.1023,-1.1012,-1.1016,-1.1022,-1.1014,-1.1021,-1.1017,-1.1014,-1.1017,-1.1008,-1.1011,-1.1002,-1.1004,-1.0999,-1.1005,-1.1005,-1.1003,-1.1001,-1.1004,-1.1004,-1.1004,-1.1002,-1.0999,-1.0998,-1.0998,-1.0998,0,-1.1042,-1.1034,-1.104,-1.1034,-1.1032,-1.1037,-1.1032,-1.1035,-1.103,-1.1034,-1.1034,-1.1027,-1.1029,-1.1023,-1.1024,-1.102,-1.1029,-1.1025,-1.1029,-1.1028,-1.1036,-1.1035,-1.1064,-1.1067,-1.104,-1.104,-1.104,0,-1.1056,-1.106,-1.1054,-1.1055,-1.1053,-1.1055,-1.1055,-1.1046,-1.1047,-1.1044,-1.1047,-1.1048,-1.1049,-1.1052,-1.1047,-1.1048,-1.1044,-1.1054,-1.1044,-1.1046,-1.1044,-1.1043,-1.1044,-1.1056,-1.1056,-1.1057,-1.1057,0,-1.1081,-1.1077,-1.1078,-1.1077,-1.1077,-1.1076,-1.1074,-1.1076,-1.1067,-1.1068,-1.1069,-1.1069,-1.107,-1.1071,-1.107,-1.1068,-1.1061,-1.106,-1.1062,-1.1064,-1.1066,-1.1064,-1.1034,-1.1059,-1.1059,-1.1059,-1.1059,-1.1059,-1.1101,-1.1104,-1.11,-1.11,-1.1098,-1.1097,-1.1099,-1.1094,-1.1095,-1.1094,-1.1089,-1.1092,-1.1089,-1.1087,-1.1085,-1.1087,-1.1083,-1.1085,-1.1086,-1.1087,-1.1088,-1.1066,-1.1087,-1.1087,-1.1087,-1.1087,-1.1087,0,-1.1125,-1.1122,-1.1123,-1.112,-1.1121,-1.1113,-1.1111,-1.1112,-1.1114,-1.1111,-1.1111,-1.1113,-1.1114,-1.1108,-1.1108,-1.1111,-1.1108,-1.1111,-1.1111,-1.111,-1.1092,-1.109,-1.1114,-1.1114,-1.1114,-1.1114,-1.1114,-1.1114,-1.1138,-1.1143,-1.1138,-1.1142,-1.1138,-1.114,-1.1139,-1.1138,-1.1136,-1.1137,-1.1138,-1.1134,-1.1131,-1.113,-1.113,-1.1129,-1.1129,-1.1134,-1.1131,-1.1114,-1.1112,-1.1109,-1.1107,-1.1134,-1.1134,-1.1149,-1.1149,-1.1149]},{"header":{"parameterUnit":"m.s-1","parameterCategory":1,"la1":30.2991,"la2":30.254,"lo1":-89.0895,"lo2":-89.0444,"dy":0.0017,"dx":0.0017,"nx":28,"ny":28,"refTime":"2024-05-03T09:00:00:Z","depth":0,"parameterNumber":3,"parameterNumberName":"V-component_of_WINDS"},"data":[0,0,0,0,0,0,0,0,0,0,0,0,0,0,0,0,0,0,0,0,0,0,0,0,0,0,0,0,0,0,0,0,0,0,0,0,0,0,0,0,0,0,0,0,0,0,0,0,0,0,0,0,0,0,0,0,0,0,2.9211,2.921,0,2.9159,2.9158,2.9158,2.9112,2.9111,2.9111,2.911,2.9055,2.9054,2.9053,0,0,0,0,0,0,0,0,0,0,0,0,0,2.9269,2.9268,2.9211,2.921,2.9209,2.9159,2.9158,2.9158,2.9112,2.9111,2.9111,2.911,2.9055,2.9054,2.9052,0,0,0,0,0,0,0,0,0,0,0,0,0,2.9233,2.9267,2.9211,2.9181,2.9178,2.9159,2.9158,2.9157,2.9112,2.9111,2.9111,2.911,2.9055,2.9054,2.9052,2.9059,0,0,2.9048,2.9047,0,0,0,0,0,0,0,0,2.9235,2.9231,2.9186,2.9183,2.9179,2.9141,2.9158,2.9124,2.9112,2.9137,2.911,2.911,2.9084,2.908,2.9072,2.9056,2.9054,2.9048,2.9047,2.9046,2.9046,0,0,0,0,0,0,0,2.9237,2.9233,2.919,2.9185,2.9181,2.9169,2.9163,2.9152,2.9115,2.9135,2.9131,2.9126,2.9082,2.9073,2.907,2.9053,2.9048,2.9046,2.9045,2.9045,2.9042,2.9043,0,0,0,0,0,0,2.9245,2.9235,2.9192,2.9189,2.9206,2.9169,2.9162,2.9154,2.9115,2.9109,2.9127,2.9124,2.9076,2.9072,2.9068,2.9074,2.9046,2.9045,2.9044,2.9041,2.9042,2.9043,0,0,0,0,0,0,2.9246,2.9241,2.9194,2.9211,2.9204,2.9169,2.916,2.9154,2.9145,2.9109,2.9102,2.9125,2.9076,2.907,2.9062,2.9072,2.9044,2.9043,2.904,2.9041,2.9043,2.9086,0,0,0,0,0,0,2.9248,2.9242,2.9244,2.9211,2.9203,2.9189,2.9161,2.9153,2.9143,2.9139,2.9106,2.9099,2.9075,2.9065,2.9061,2.9069,2.9041,2.9039,2.9041,2.9042,2.9084,2.9089,2.9093,0,0,0,0,0,2.925,2.9258,2.9245,2.924,2.9206,2.919,2.9185,2.9157,2.9144,2.9146,2.9123,2.91,2.9071,2.9064,2.9059,2.9067,2.9038,2.904,2.9042,2.9082,2.9088,2.9093,0,0,0,0,0,0,2.9291,2.9253,2.9238,2.9235,2.9217,2.9182,2.9184,2.9164,2.9148,2.9145,2.911,2.9103,2.9099,2.9082,2.9075,2.9073,2.9052,2.9053,2.9084,2.9089,2.9094,2.9098,2.904,0,0,0,0,0,2.93,2.9292,2.9258,2.9259,2.925,2.9219,2.9211,2.9191,2.917,2.9162,2.9138,2.9118,2.9104,2.9096,2.9081,2.9081,2.9074,2.9085,2.9089,2.9093,2.9095,2.9095,2.91,2.9049,2.9049,2.9049,0,0,2.9318,2.9296,2.9292,2.9267,2.925,2.9241,2.9212,2.9204,2.9198,2.916,2.9151,2.9134,2.9109,2.9106,2.9103,2.9091,2.9107,2.9096,2.9099,2.9098,2.9098,2.9102,2.9107,2.905,2.905,2.905,0,0,2.9347,2.9329,2.9329,2.9313,2.9288,2.9268,2.9268,2.9237,2.9224,2.9216,2.9188,2.9179,2.9156,2.914,2.9129,2.9154,2.9133,2.915,2.9174,2.9175,2.9179,2.9183,2.9193,2.9197,2.9151,2.9152,2.9152,0,2.9372,2.9359,2.933,2.9325,2.9314,2.9282,2.9281,2.9267,2.9238,2.9232,2.922,2.9192,2.9172,2.9166,2.9172,2.9164,2.9163,2.9153,2.9181,2.9184,2.9187,2.9196,2.92,2.9154,2.9154,2.9153,2.9153,0,2.9391,2.9383,2.9385,2.9361,2.9351,2.9347,2.9318,2.9312,2.9293,2.9274,2.9267,2.9243,2.9223,2.922,2.9201,2.9211,2.9205,2.9188,2.9166,2.9195,2.9203,2.9206,2.9157,2.9156,2.9156,2.9155,0,0,2.9443,2.9405,2.9406,2.9395,2.9367,2.9359,2.9355,2.9338,2.9333,2.9315,2.9311,2.9293,2.9277,2.9265,2.9244,2.9245,2.9268,2.9227,2.9226,2.9236,2.9279,2.9293,2.9297,2.9254,2.9255,2.9255,2.9281,0,2.9468,2.9459,2.9434,2.9433,2.9425,2.9395,2.9391,2.9374,2.9356,2.9347,2.9326,2.9315,2.9295,2.9287,2.9287,2.9265,2.9276,2.9263,2.925,2.925,2.9258,2.9301,2.9315,2.9341,2.9284,2.9285,2.9285,0,2.9494,2.948,2.9479,2.9453,2.9449,2.9446,2.9429,2.942,2.94,2.9387,2.9374,2.9352,2.9346,2.9327,2.9318,2.931,2.9303,2.9292,2.9293,2.929,2.9269,2.93,2.9348,2.9352,2.9289,2.9289,2.9289,0,2.9534,2.9514,2.9511,2.9503,2.9472,2.9471,2.9458,2.9436,2.9428,2.9413,2.9408,2.9392,2.9383,2.9371,2.9346,2.9334,2.9341,2.9319,2.933,2.9331,2.9333,2.9333,2.9381,2.9328,2.9328,2.9328,2.9328,0,2.9564,2.9564,2.9529,2.9527,2.9527,2.9499,2.9499,2.9483,2.9465,2.946,2.9432,2.9427,2.9394,2.9385,2.9365,2.9362,2.9358,2.9348,2.9342,2.935,2.9352,2.9345,2.9343,2.9329,2.9329,2.9328,2.9328,0,2.9607,2.9584,2.9579,2.955,2.9543,2.9545,2.952,2.9518,2.9499,2.9493,2.949,2.946,2.9449,2.9423,2.9404,2.9391,2.9393,2.9383,2.94,2.9397,2.9411,2.941,2.9456,2.9461,2.9405,2.9406,2.9406,0,2.9628,2.9628,2.9601,2.9596,2.9585,2.9577,2.9569,2.9541,2.9534,2.9512,2.9512,2.9499,2.9487,2.9471,2.9448,2.9434,2.9424,2.9441,2.9421,2.943,2.9425,2.9426,2.9426,2.9445,2.9446,2.9446,2.9447,0,2.9669,2.9657,2.9647,2.9634,2.9626,2.9613,2.9599,2.9597,2.9566,2.9559,2.9548,2.9539,2.9522,2.9509,2.9492,2.9478,2.9458,2.9454,2.9456,2.9464,2.9475,2.947,2.9413,2.9452,2.9452,2.9451,2.9451,2.9451,2.9702,2.9701,2.9682,2.9673,2.966,2.9648,2.9645,2.9627,2.9617,2.9602,2.9586,2.9577,2.9558,2.9533,2.9521,2.9513,2.9503,2.9505,2.9506,2.9507,2.9512,2.9476,2.951,2.951,2.951,2.9509,2.9509,0,2.9741,2.9728,2.972,2.9702,2.9695,2.9678,2.9662,2.9657,2.965,2.9634,2.9624,2.9612,2.96,2.9577,2.9564,2.9563,2.9553,2.956,2.956,2.9557,2.9521,2.9521,2.9568,2.9568,2.9568,2.9568,2.9568,2.9568,2.9761,2.976,2.9746,2.9739,2.9725,2.9717,2.971,2.9699,2.9687,2.9675,2.9666,2.9652,2.9633,2.9618,2.9607,2.9601,2.9597,2.9608,2.9599,2.9565,2.956,2.9554,2.9554,2.9607,2.9607,2.9635,2.9635,2.9636]}]]